Powrót do katalogu

STARLINK-3112

AktywnyŁącznośćVLEO
NORAD 49421·PAYLOAD·🇺🇸 United States

Wystrzelony Nov 13, 2021 z Cape Canaveral Space Force Station

Loading…

Następne Przeloty (najbliższe 24 godziny)

TLE

ŚwieżeSource: CelesTrak SupGP

Epoka: Sep 14, 2026, 22:01 UTC

1 49421C 21104P   26257.91784722  .00030489  00000+0  98078-3 0  2575
2 49421  53.1579  86.8077 0001293  83.5432 340.1867 15.31675660    18

Śledź STARLINK-3112 w czasie rzeczywistym z AllMySat

Download on the App Store